When you browse on this site, cookies collect data to enhance your experience and personalize the content and advertising you see.
Visit our Privacy Policy to learn more. By continuing to use the site, you agree to this use of cookies and data.
  • în România
  • Lista ţărilor
  • Pe 7 zile
  • Temperatura apei
  • Hartă satelitară
  • Meteo pe hartă
  • Widget-uri
  • user-avatar
    Intrare

    Meteo pe oră la Bristol

    Astăzi, 27 Iunie, Joi

    Timp Temperatura Precipitaţii Vânt Presiune Umiditate
    00:00 +13°C° 0 mm 6 m/s 770 mmHg 88%
    01:00 +13°C° 0 mm 6 m/s 769 mmHg 89%
    02:00 +11°C° 0 mm 6 m/s 769 mmHg 90%
    03:00 +11°C° 0 mm 6 m/s 769 mmHg 91%
    04:00 +11°C° 0 mm 6 m/s 769 mmHg 90%
    05:00 +11°C° 0 mm 7 m/s 769 mmHg 88%
    06:00 +11°C° 0 mm 7 m/s 769 mmHg 87%
    07:00 +14°C° 0 mm 7 m/s 769 mmHg 83%
    08:00 +15°C° 0 mm 7 m/s 769 mmHg 79%
    09:00 +17°C° 0 mm 7 m/s 770 mmHg 75%
    10:00 +18°C° 0 mm 7 m/s 769 mmHg 74%
    11:00 +20°C° 0 mm 7 m/s 769 mmHg 73%
    12:00 +21°C° 0 mm 7 m/s 769 mmHg 71%
    13:00 +22°C° 0 mm 7 m/s 769 mmHg 71%
    14:00 +22°C° 0 mm 7 m/s 768 mmHg 71%
    15:00 +23°C° 0 mm 7 m/s 768 mmHg 71%
    16:00 +22°C° 0 mm 7 m/s 768 mmHg 73%
    17:00 +22°C° 0 mm 7 m/s 767 mmHg 76%
    18:00 +21°C° 0 mm 7 m/s 767 mmHg 78%
    19:00 +20°C° 0 mm 7 m/s 767 mmHg 79%
    20:00 +18°C° 0 mm 7 m/s 767 mmHg 79%
    21:00 +16°C° 0 mm 6 m/s 768 mmHg 80%
    22:00 +16°C° 0 mm 6 m/s 768 mmHg 80%
    23:00 +15°C° 0 mm 6 m/s 768 mmHg 80%

    Mâine, 28 Iunie, Vineri

    Timp Temperatura Precipitaţii Vânt Presiune Umiditate
    00:00 +14°C° 0 mm 6 m/s 768 mmHg 80%
    01:00 +13°C° 0 mm 6 m/s 767 mmHg 81%
    02:00 +13°C° 0 mm 6 m/s 767 mmHg 83%
    03:00 +11°C° 0 mm 6 m/s 767 mmHg 84%
    04:00 +11°C° 0 mm 6 m/s 766 mmHg 84%
    05:00 +13°C° 0 mm 6 m/s 766 mmHg 84%
    06:00 +13°C° 0 mm 6 m/s 766 mmHg 85%
    07:00 +15°C° 0 mm 6 m/s 766 mmHg 82%
    08:00 +16°C° 0 mm 6 m/s 766 mmHg 79%
    09:00 +19°C° 0 mm 6 m/s 766 mmHg 76%
    10:00 +21°C° 0 mm 6 m/s 765 mmHg 74%
    11:00 +22°C° 0 mm 6 m/s 765 mmHg 72%
    12:00 +24°C° 0 mm 6 m/s 765 mmHg 71%
    13:00 +24°C° 0 mm 6 m/s 764 mmHg 70%
    14:00 +24°C° 0 mm 6 m/s 764 mmHg 70%
    15:00 +26°C° 0 mm 6 m/s 764 mmHg 70%
    16:00 +24°C° 0 mm 6 m/s 763 mmHg 72%
    17:00 +25°C° 0 mm 5 m/s 763 mmHg 74%
    18:00 +23°C° 0 mm 5 m/s 763 mmHg 76%
    19:00 +21°C° 0 mm 4 m/s 763 mmHg 79%
    20:00 +19°C° 0 mm 4 m/s 763 mmHg 82%
    21:00 +18°C° 0 mm 4 m/s 763 mmHg 85%
    22:00 +17°C° 0 mm 3 m/s 763 mmHg 87%
    23:00 +16°C° 0 mm 3 m/s 762 mmHg 88%

    Poimâine, 29 Iunie, Sâmbătă

    Timp Temperatura Precipitaţii Vânt Presiune Umiditate
    00:00 +16°C° 0 mm 2 m/s 762 mmHg 90%
    01:00 +16°C° 0 mm 3 m/s 762 mmHg 91%
    02:00 +14°C° 0 mm 3 m/s 761 mmHg 91%
    03:00 +14°C° 0 mm 3 m/s 761 mmHg 91%
    04:00 +16°C° 0 mm 3 m/s 761 mmHg 90%
    05:00 +16°C° 0 mm 2 m/s 761 mmHg 89%
    06:00 +17°C° 0 mm 2 m/s 760 mmHg 88%
    07:00 +19°C° 0 mm 3 m/s 760 mmHg 86%
    08:00 +21°C° 0 mm 3 m/s 760 mmHg 83%
    09:00 +24°C° 0 mm 3 m/s 759 mmHg 81%
    10:00 +25°C° 0 mm 3 m/s 759 mmHg 79%
    11:00 +26°C° 0 mm 3 m/s 759 mmHg 77%
    12:00 +27°C° 0 mm 4 m/s 758 mmHg 75%
    13:00 +27°C° 0 mm 4 m/s 758 mmHg 77%
    14:00 +26°C° 0 mm 5 m/s 758 mmHg 79%
    15:00 +26°C° 0 mm 5 m/s 758 mmHg 81%
    16:00 +23°C° 0.1 mm 5 m/s 758 mmHg 81%
    17:00 +22°C° 0.1 mm 5 m/s 758 mmHg 80%
    18:00 +20°C° 0.1 mm 6 m/s 758 mmHg 80%
    19:00 +19°C° 0 mm 5 m/s 758 mmHg 82%
    20:00 +16°C° 0 mm 5 m/s 759 mmHg 85%
    21:00 +15°C° 0 mm 4 m/s 759 mmHg 87%
    22:00 +14°C° 0 mm 4 m/s 759 mmHg 89%
    23:00 +14°C° 0 mm 4 m/s 759 mmHg 92%

    30 Iunie, Duminică

    Timp Temperatura Precipitaţii Vânt Presiune Umiditate
    00:00 +13°C° 0 mm 4 m/s 759 mmHg 94%
    01:00 +14°C° 0 mm 4 m/s 759 mmHg 93%
    02:00 +14°C° 0 mm 4 m/s 759 mmHg 93%
    03:00 +14°C° 0 mm 4 m/s 759 mmHg 92%
    04:00 +14°C° 0 mm 5 m/s 759 mmHg 91%
    05:00 +15°C° 0 mm 5 m/s 760 mmHg 90%
    06:00 +15°C° 0 mm 5 m/s 760 mmHg 89%
    07:00 +15°C° 0 mm 5 m/s 760 mmHg 87%
    08:00 +16°C° 0 mm 5 m/s 761 mmHg 85%
    09:00 +17°C° 0 mm 5 m/s 761 mmHg 82%
    10:00 +17°C° 0 mm 6 m/s 761 mmHg 81%
    11:00 +17°C° 0 mm 6 m/s 761 mmHg 79%
    12:00 +19°C° 0 mm 6 m/s 761 mmHg 77%
    13:00 +19°C° 0 mm 6 m/s 761 mmHg 76%
    14:00 +19°C° 0 mm 6 m/s 761 mmHg 75%
    15:00 +20°C° 0 mm 6 m/s 761 mmHg 74%
    16:00 +19°C° 0 mm 6 m/s 761 mmHg 75%
    17:00 +17°C° 0 mm 6 m/s 761 mmHg 76%
    18:00 +16°C° 0 mm 6 m/s 761 mmHg 77%
    19:00 +15°C° 0 mm 6 m/s 761 mmHg 82%
    20:00 +14°C° 0 mm 5 m/s 761 mmHg 87%
    21:00 +13°C° 0 mm 4 m/s 762 mmHg 91%
    22:00 +13°C° 0 mm 4 m/s 762 mmHg 91%
    23:00 +13°C° 0 mm 4 m/s 762 mmHg 91%

    1 Iulie, Luni

    Timp Temperatura Precipitaţii Vânt Presiune Umiditate
    00:00 +12°C° 0 mm 4 m/s 762 mmHg 91%
    01:00 +12°C° 0 mm 4 m/s 762 mmHg 91%
    02:00 +12°C° 0 mm 4 m/s 762 mmHg 90%
    03:00 +11°C° 0 mm 3 m/s 762 mmHg 89%
    04:00 +12°C° 0 mm 3 m/s 762 mmHg 87%
    05:00 +12°C° 0 mm 4 m/s 763 mmHg 85%
    06:00 +12°C° 0 mm 4 m/s 763 mmHg 83%
    07:00 +13°C° 0 mm 4 m/s 763 mmHg 80%
    08:00 +14°C° 0 mm 4 m/s 763 mmHg 77%
    09:00 +15°C° 0 mm 5 m/s 764 mmHg 74%
    10:00 +16°C° 0 mm 5 m/s 764 mmHg 73%
    11:00 +17°C° 0 mm 5 m/s 764 mmHg 72%
    12:00 +17°C° 0 mm 5 m/s 764 mmHg 71%
    13:00 +17°C° 0 mm 5 m/s 764 mmHg 71%
    14:00 +19°C° 0 mm 5 m/s 764 mmHg 72%
    15:00 +19°C° 0 mm 5 m/s 764 mmHg 72%
    16:00 +19°C° 0 mm 5 m/s 764 mmHg 74%
    17:00 +18°C° 0 mm 4 m/s 764 mmHg 76%
    18:00 +18°C° 0 mm 4 m/s 765 mmHg 78%
    19:00 +17°C° 0 mm 3 m/s 765 mmHg 81%
    20:00 +14°C° 0 mm 3 m/s 765 mmHg 85%
    21:00 +13°C° 0 mm 3 m/s 766 mmHg 88%
    22:00 +13°C° 0 mm 2 m/s 766 mmHg 88%
    23:00 +13°C° 0 mm 2 m/s 766 mmHg 89%

    2 Iulie, Marţi

    Timp Temperatura Precipitaţii Vânt Presiune Umiditate
    00:00 +12°C° 0 mm 2 m/s 766 mmHg 90%
    01:00 +12°C° 0 mm 2 m/s 766 mmHg 89%
    02:00 +11°C° 0 mm 1 m/s 766 mmHg 89%
    03:00 +11°C° 0 mm 1 m/s 766 mmHg 89%
    04:00 +11°C° 0 mm 1 m/s 767 mmHg 87%
    05:00 +12°C° 0 mm 1 m/s 767 mmHg 85%
    06:00 +12°C° 0 mm 1 m/s 767 mmHg 83%
    07:00 +14°C° 0 mm 2 m/s 767 mmHg 78%
    08:00 +14°C° 0 mm 3 m/s 767 mmHg 74%
    09:00 +16°C° 0 mm 3 m/s 767 mmHg 69%
    10:00 +17°C° 0 mm 3 m/s 767 mmHg 66%
    11:00 +18°C° 0 mm 3 m/s 767 mmHg 64%
    12:00 +19°C° 0 mm 3 m/s 767 mmHg 61%
    13:00 +19°C° 0 mm 3 m/s 767 mmHg 62%
    14:00 +20°C° 0 mm 3 m/s 767 mmHg 63%
    15:00 +20°C° 0 mm 3 m/s 767 mmHg 64%
    16:00 +19°C° 0 mm 3 m/s 767 mmHg 66%
    17:00 +19°C° 0 mm 2 m/s 767 mmHg 69%
    18:00 +19°C° 0 mm 2 m/s 767 mmHg 72%
    19:00 +17°C° 0 mm 2 m/s 767 mmHg 75%
    20:00 +16°C° 0 mm 3 m/s 767 mmHg 79%
    21:00 +14°C° 0 mm 3 m/s 767 mmHg 82%
    22:00 +13°C° 0 mm 3 m/s 767 mmHg 82%
    23:00 +12°C° 0 mm 3 m/s 767 mmHg 81%
    Arată mai mult